When you browse on this site, cookies collect data to enhance your experience and personalize the content and advertising you see.
Visit our Privacy Policy to learn more. By continuing to use the site, you agree to this use of cookies and data.
  • In Hungary
  • List of Countries
  • For 7 days
  • Water Temperature
  • Satellite Maps
  • Weather Map
  • News
  • Weather Widgets
  • user-avatar
    Login

    Hourly Weather Batumi

    Today, 18 January, Friday

    Time Temperature Precipitation Wind Pressure Humidity
    00:00 +1°C° 0.1 mm 4 mps 768 mmHg 87%
    01:00 +1°C° 0.2 mm 4 mps 768 mmHg 87%
    02:00 +1°C° 0.2 mm 4 mps 769 mmHg 87%
    03:00 +1°C° 0.2 mm 4 mps 769 mmHg 88%
    04:00 +1°C° 0.1 mm 4 mps 769 mmHg 88%
    05:00 +2°C° 0.1 mm 3 mps 769 mmHg 88%
    06:00 +2°C° 0.1 mm 3 mps 770 mmHg 88%
    07:00 +2°C° 0 mm 3 mps 770 mmHg 85%
    08:00 +3°C° 0 mm 3 mps 770 mmHg 82%
    09:00 +4°C° 0 mm 3 mps 770 mmHg 79%
    10:00 +6°C° 0 mm 2 mps 769 mmHg 77%
    11:00 +7°C° 0 mm 2 mps 769 mmHg 75%
    12:00 +9°C° 0 mm 1 mps 769 mmHg 73%
    13:00 +9°C° 0 mm 1 mps 768 mmHg 74%
    14:00 +9°C° 0 mm 1 mps 768 mmHg 75%
    15:00 +9°C° 0 mm 1 mps 768 mmHg 76%
    16:00 +8°C° 0 mm 1 mps 768 mmHg 79%
    17:00 +7°C° 0 mm 1 mps 768 mmHg 81%
    18:00 +4°C° 0 mm 2 mps 769 mmHg 83%
    19:00 +4°C° 0 mm 2 mps 769 mmHg 81%
    20:00 +4°C° 0 mm 2 mps 769 mmHg 78%
    21:00 +2°C° 0 mm 3 mps 770 mmHg 75%
    22:00 +2°C° 0 mm 3 mps 770 mmHg 73%
    23:00 +2°C° 0 mm 3 mps 769 mmHg 70%

    Tomorrow, 19 January, Saturday

    Time Temperature Precipitation Wind Pressure Humidity
    00:00 +2°C° 0 mm 3 mps 769 mmHg 68%
    01:00 +2°C° 0 mm 3 mps 769 mmHg 66%
    02:00 +1°C° 0 mm 4 mps 769 mmHg 64%
    03:00 +1°C° 0 mm 4 mps 769 mmHg 62%
    04:00 +1°C° 0 mm 4 mps 769 mmHg 61%
    05:00 +1°C° 0 mm 4 mps 769 mmHg 60%
    06:00 +1°C° 0 mm 4 mps 769 mmHg 59%
    07:00 +3°C° 0 mm 4 mps 769 mmHg 58%
    08:00 +3°C° 0 mm 4 mps 769 mmHg 57%
    09:00 +4°C° 0 mm 3 mps 769 mmHg 56%
    10:00 +7°C° 0 mm 3 mps 768 mmHg 54%
    11:00 +9°C° 0 mm 2 mps 768 mmHg 53%
    12:00 +11°C° 0 mm 1 mps 767 mmHg 51%
    13:00 +12°C° 0 mm 1 mps 767 mmHg 52%
    14:00 +12°C° 0 mm 1 mps 767 mmHg 54%
    15:00 +12°C° 0 mm 1 mps 766 mmHg 55%
    16:00 +10°C° 0 mm 1 mps 767 mmHg 59%
    17:00 +9°C° 0 mm 1 mps 767 mmHg 63%
    18:00 +6°C° 0 mm 2 mps 768 mmHg 67%
    19:00 +6°C° 0 mm 2 mps 768 mmHg 66%
    20:00 +6°C° 0 mm 2 mps 768 mmHg 66%
    21:00 +6°C° 0 mm 2 mps 768 mmHg 65%
    22:00 +6°C° 0 mm 2 mps 769 mmHg 64%
    23:00 +5°C° 0 mm 3 mps 769 mmHg 62%

    Day after tomorrow, 20 January, Sunday

    Time Temperature Precipitation Wind Pressure Humidity
    00:00 +4°C° 0 mm 3 mps 769 mmHg 60%
    01:00 +4°C° 0 mm 3 mps 769 mmHg 60%
    02:00 +4°C° 0 mm 3 mps 769 mmHg 59%
    03:00 +4°C° 0 mm 3 mps 769 mmHg 58%
    04:00 +4°C° 0 mm 3 mps 769 mmHg 58%
    05:00 +4°C° 0 mm 3 mps 769 mmHg 58%
    06:00 +3°C° 0 mm 3 mps 769 mmHg 58%
    07:00 +4°C° 0 mm 3 mps 769 mmHg 58%
    08:00 +5°C° 0 mm 3 mps 770 mmHg 59%
    09:00 +5°C° 0 mm 3 mps 770 mmHg 59%
    10:00 +8°C° 0 mm 2 mps 769 mmHg 55%
    11:00 +10°C° 0 mm 1 mps 769 mmHg 52%
    12:00 +12°C° 0 mm 1 mps 768 mmHg 48%
    13:00 +11°C° 0 mm 1 mps 768 mmHg 50%
    14:00 +11°C° 0 mm 1 mps 767 mmHg 52%
    15:00 +11°C° 0 mm 1 mps 767 mmHg 53%
    16:00 +10°C° 0 mm 1 mps 767 mmHg 57%
    17:00 +8°C° 0 mm 2 mps 768 mmHg 61%
    18:00 +6°C° 0 mm 2 mps 768 mmHg 66%
    19:00 +6°C° 0 mm 2 mps 768 mmHg 66%
    20:00 +5°C° 0 mm 3 mps 768 mmHg 66%
    21:00 +4°C° 0 mm 3 mps 769 mmHg 67%
    22:00 +4°C° 0 mm 3 mps 769 mmHg 65%
    23:00 +4°C° 0 mm 3 mps 769 mmHg 63%

    21 January, Monday

    Time Temperature Precipitation Wind Pressure Humidity
    00:00 +4°C° 0 mm 4 mps 769 mmHg 61%
    01:00 +4°C° 0 mm 4 mps 769 mmHg 59%
    02:00 +4°C° 0 mm 4 mps 768 mmHg 57%
    03:00 +4°C° 0 mm 4 mps 768 mmHg 56%
    04:00 +3°C° 0 mm 4 mps 768 mmHg 55%
    05:00 +3°C° 0 mm 4 mps 768 mmHg 54%
    06:00 +3°C° 0 mm 4 mps 768 mmHg 53%
    07:00 +4°C° 0 mm 4 mps 768 mmHg 52%
    08:00 +4°C° 0 mm 4 mps 768 mmHg 51%
    09:00 +5°C° 0 mm 4 mps 768 mmHg 50%
    10:00 +7°C° 0 mm 3 mps 767 mmHg 49%
    11:00 +9°C° 0 mm 2 mps 766 mmHg 48%
    12:00 +12°C° 0 mm 2 mps 766 mmHg 47%
    13:00 +12°C° 0 mm 1 mps 765 mmHg 48%
    14:00 +12°C° 0 mm 1 mps 765 mmHg 48%
    15:00 +11°C° 0 mm 0 mps 764 mmHg 49%
    16:00 +11°C° 0 mm 1 mps 765 mmHg 54%
    17:00 +8°C° 0 mm 2 mps 765 mmHg 59%
    18:00 +5°C° 0 mm 3 mps 766 mmHg 64%
    19:00 +5°C° 0 mm 3 mps 766 mmHg 63%
    20:00 +5°C° 0 mm 4 mps 767 mmHg 63%
    21:00 +5°C° 0 mm 4 mps 767 mmHg 63%
    22:00 +5°C° 0 mm 4 mps 767 mmHg 63%
    23:00 +4°C° 0 mm 4 mps 767 mmHg 62%

    22 January, Tuesday

    Time Temperature Precipitation Wind Pressure Humidity
    00:00 +4°C° 0 mm 4 mps 768 mmHg 62%
    01:00 +5°C° 0 mm 4 mps 768 mmHg 63%
    02:00 +5°C° 0 mm 4 mps 768 mmHg 65%
    03:00 +5°C° 0 mm 4 mps 768 mmHg 66%
    04:00 +5°C° 0.1 mm 4 mps 768 mmHg 68%
    05:00 +5°C° 0.1 mm 4 mps 768 mmHg 70%
    06:00 +5°C° 0.1 mm 4 mps 767 mmHg 72%
    07:00 +5°C° 0.2 mm 4 mps 768 mmHg 71%
    08:00 +5°C° 0.2 mm 4 mps 768 mmHg 71%
    09:00 +6°C° 0.2 mm 4 mps 768 mmHg 70%
    10:00 +6°C° 0.4 mm 4 mps 767 mmHg 71%
    11:00 +6°C° 0.4 mm 4 mps 767 mmHg 71%
    12:00 +8°C° 0.4 mm 3 mps 766 mmHg 72%
    13:00 +8°C° 0.6 mm 3 mps 766 mmHg 76%
    14:00 +8°C° 0.6 mm 2 mps 766 mmHg 81%
    15:00 +8°C° 0.6 mm 2 mps 766 mmHg 86%
    16:00 +8°C° 0.2 mm 1 mps 766 mmHg 88%
    17:00 +8°C° 0.2 mm 1 mps 767 mmHg 91%
    18:00 +7°C° 0.2 mm 1 mps 767 mmHg 93%
    19:00 +7°C° 0 mm 1 mps 767 mmHg 91%
    20:00 +7°C° 0 mm 1 mps 767 mmHg 88%
    21:00 +6°C° 0 mm 1 mps 768 mmHg 86%
    22:00 +5°C° 0 mm 2 mps 767 mmHg 83%
    23:00 +5°C° 0 mm 2 mps 767 mmHg 80%

    23 January, Wednesday

    Time Temperature Precipitation Wind Pressure Humidity
    00:00 +4°C° 0 mm 3 mps 767 mmHg 76%
    01:00 +4°C° 0 mm 3 mps 767 mmHg 74%
    02:00 +3°C° 0 mm 3 mps 767 mmHg 72%
    03:00 +3°C° 0 mm 3 mps 767 mmHg 69%
    04:00 +3°C° 0 mm 3 mps 766 mmHg 68%
    05:00 +3°C° 0 mm 3 mps 766 mmHg 66%
    06:00 +4°C° 0 mm 4 mps 766 mmHg 64%
    07:00 +4°C° 0 mm 4 mps 766 mmHg 63%
    08:00 +5°C° 0 mm 4 mps 766 mmHg 62%
    09:00 +5°C° 0 mm 4 mps 766 mmHg 61%
    10:00 +8°C° 0 mm 3 mps 765 mmHg 59%
    11:00 +9°C° 0 mm 3 mps 765 mmHg 57%
    12:00 +12°C° 0 mm 2 mps 764 mmHg 55%
    13:00 +12°C° 0 mm 2 mps 764 mmHg 56%
    14:00 +12°C° 0 mm 2 mps 763 mmHg 57%
    15:00 +13°C° 0 mm 2 mps 763 mmHg 58%
    16:00 +10°C° 0 mm 3 mps 763 mmHg 62%
    17:00 +9°C° 0 mm 3 mps 764 mmHg 66%
    18:00 +6°C° 0 mm 4 mps 764 mmHg 71%
    19:00 +6°C° 0 mm 4 mps 764 mmHg 68%
    20:00 +6°C° 0 mm 5 mps 764 mmHg 66%
    21:00 +5°C° 0 mm 5 mps 765 mmHg 64%
    22:00 +5°C° 0 mm 5 mps 765 mmHg 63%
    23:00 +4°C° 0 mm 6 mps 765 mmHg 61%
    Show more